| time (UTC) | temp F | wind direction | speed knots | gust knots | rain 1hr in | rain 24hr in | rain mn in | humidity % | barometer mb |
| 20260505053550 | 55 | 0 | 0.9 | 5.2 | 0.00 | 0.00 | 0.00 | 82 | 1012.0 |
| 20260505053109 | 55 | 173 | 1.7 | 5.2 | 0.00 | 0.00 | 0.00 | 82 | 1012.0 |
| 20260505052550 | 55 | 180 | 1.7 | 6.1 | 0.00 | 0.00 | 0.00 | 82 | 1012.0 |
| 20260505052052 | 55 | 190 | 2.6 | 6.1 | 0.00 | 0.00 | 0.00 | 82 | 1012.0 |
| 20260505051553 | 55 | 202 | 1.7 | 6.1 | 0.00 | 0.00 | 0.00 | 81 | 1012.0 |
| 20260505051054 | 55 | 187 | 1.7 | 6.1 | 0.00 | 0.00 | 0.00 | 80 | 1012.0 |
| 20260505050552 | 55 | 169 | 1.7 | 5.2 | 0.00 | 0.00 | 0.00 | 80 | 1011.9 |
| 20260505041612 | 57 | 144 | 1.7 | 4.3 | 0.00 | 0.00 | 0.00 | 75 | 1012.2 |
| 20260505041051 | 57 | 159 | 1.7 | 4.3 | 0.00 | 0.00 | 0.00 | 75 | 1012.2 |
| 20260505040553 | 57 | 173 | 1.7 | 4.3 | 0.00 | 0.00 | 0.00 | 75 | 1012.3 |
| 20260505040056 | 57 | 172 | 1.7 | 5.2 | 0.00 | 0.00 | 0.00 | 75 | 1012.3 |
| 20260505035554 | 57 | 140 | 1.7 | 5.2 | 0.00 | 0.00 | 0.00 | 74 | 1012.3 |
| 20260505035054 | 58 | 155 | 2.6 | 6.1 | 0.00 | 0.00 | 0.00 | 74 | 1012.2 |
| 20260505034552 | 58 | 175 | 2.6 | 7.8 | 0.00 | 0.00 | 0.00 | 74 | 1012.1 |
| 20260505034052 | 58 | 183 | 2.6 | 7.8 | 0.00 | 0.00 | 0.00 | 74 | 1012.0 |
| 20260505033552 | 58 | 165 | 4.3 | 7.0 | 0.00 | 0.00 | 0.00 | 73 | 1012.0 |
| 20260505033055 | 58 | 174 | 2.6 | 7.8 | 0.00 | 0.00 | 0.00 | 73 | 1012.1 |
| 20260505032555 | 58 | 182 | 2.6 | 7.8 | 0.00 | 0.00 | 0.00 | 73 | 1012.1 |
| 20260505032051 | 58 | 191 | 2.6 | 7.8 | 0.00 | 0.00 | 0.00 | 72 | 1012.2 |
| 20260505031602 | 58 | 175 | 2.6 | 8.7 | 0.00 | 0.00 | 0.00 | 72 | 1012.3 |
| 20260505031057 | 58 | 199 | 3.5 | 8.7 | 0.00 | 0.00 | 0.00 | 72 | 1012.2 |
| 20260505030551 | 58 | 180 | 2.6 | 7.0 | 0.00 | 0.00 | 0.00 | 72 | 1012.4 |
| 20260505030052 | 58 | 194 | 3.5 | 7.0 | 0.00 | 0.00 | 0.00 | 71 | 1012.3 |
| 20260505025551 | 58 | 167 | 4.3 | 7.8 | 0.00 | 0.00 | 0.00 | 71 | 1012.3 |
| 20260505025054 | 59 | 188 | 2.6 | 8.7 | 0.00 | 0.00 | 0.00 | 71 | 1012.4 |
| 20260505024551 | 59 | 162 | 4.3 | 8.7 | 0.00 | 0.00 | 0.00 | 71 | 1012.4 |
| 20260505024053 | 59 | 175 | 2.6 | 6.1 | 0.00 | 0.00 | 0.00 | 71 | 1012.5 |
| 20260505023552 | 59 | 173 | 3.5 | 6.1 | 0.00 | 0.00 | 0.00 | 70 | 1012.4 |
| 20260505023100 | 59 | 155 | 2.6 | 6.1 | 0.00 | 0.00 | 0.00 | 70 | 1012.5 |
| 20260505022552 | 59 | 198 | 3.5 | 5.2 | 0.00 | 0.00 | 0.00 | 70 | 1012.7 |
| 20260505022052 | 59 | 151 | 2.6 | 7.0 | 0.00 | 0.00 | 0.00 | 70 | 1012.5 |
| 20260505021552 | 59 | 185 | 3.5 | 7.0 | 0.00 | 0.00 | 0.00 | 70 | 1012.5 |
| 20260505021052 | 59 | 160 | 2.6 | 7.0 | 0.00 | 0.00 | 0.00 | 70 | 1012.6 |
| 20260505020552 | 60 | 181 | 2.6 | 7.0 | 0.00 | 0.00 | 0.00 | 69 | 1012.5 |
| 20260505020054 | 60 | 0 | 3.5 | 7.8 | 0.00 | 0.00 | 0.00 | 69 | 1012.5 |
| 20260505015555 | 60 | 173 | 2.6 | 7.8 | 0.00 | 0.00 | 0.00 | 69 | 1012.4 |
| 20260505015051 | 60 | 171 | 2.6 | 6.1 | 0.00 | 0.00 | 0.00 | 69 | 1012.4 |
| 20260505014554 | 60 | 180 | 2.6 | 7.8 | 0.00 | 0.00 | 0.00 | 69 | 1012.5 |
| 20260505014054 | 60 | 191 | 2.6 | 8.7 | 0.00 | 0.00 | 0.00 | 69 | 1012.5 |
| 20260505013552 | 60 | 187 | 2.6 | 8.7 | 0.00 | 0.00 | 0.00 | 68 | 1012.5 |
| 20260505013059 | 60 | 196 | 3.5 | 7.0 | 0.00 | 0.00 | 0.00 | 68 | 1012.5 |
| 20260505012552 | 61 | 173 | 3.5 | 7.8 | 0.00 | 0.00 | 0.00 | 68 | 1012.5 |
| 20260505012051 | 61 | 190 | 2.6 | 7.8 | 0.00 | 0.00 | 0.00 | 67 | 1012.5 |
| 20260505011552 | 61 | 179 | 3.5 | 11.3 | 0.00 | 0.00 | 0.00 | 67 | 1012.4 |
| 20260505011053 | 61 | 207 | 3.5 | 11.3 | 0.00 | 0.00 | 0.00 | 67 | 1012.4 |
| 20260505010550 | 61 | 204 | 3.5 | 9.6 | 0.00 | 0.00 | 0.00 | 66 | 1012.3 |
| 20260505010053 | 61 | 200 | 4.3 | 9.6 | 0.00 | 0.00 | 0.00 | 66 | 1012.0 |
| 20260505005553 | 62 | 180 | 3.5 | 8.7 | 0.00 | 0.00 | 0.00 | 65 | 1012.0 |
| 20260505005053 | 62 | 164 | 3.5 | 7.8 | 0.00 | 0.00 | 0.00 | 64 | 1012.0 |
| 20260505004555 | 62 | 183 | 3.5 | 7.8 | 0.00 | 0.00 | 0.00 | 62 | 1011.9 |
| 20260505004053 | 62 | 196 | 3.5 | 6.1 | 0.00 | 0.00 | 0.00 | 61 | 1012.0 |
| 20260505003552 | 63 | 181 | 3.5 | 7.8 | 0.00 | 0.00 | 0.00 | 60 | 1012.0 |
| 20260505003058 | 63 | 186 | 3.5 | 7.8 | 0.00 | 0.00 | 0.00 | 59 | 1012.0 |
| 20260505002555 | 64 | 169 | 2.6 | 6.1 | 0.00 | 0.00 | 0.00 | 57 | 1011.9 |
| 20260505002056 | 64 | 162 | 2.6 | 6.1 | 0.00 | 0.00 | 0.00 | 56 | 1011.9 |
| 20260505001556 | 64 | 171 | 3.5 | 7.0 | 0.00 | 0.00 | 0.00 | 55 | 1011.9 |
| 20260505001051 | 65 | 169 | 2.6 | 7.0 | 0.00 | 0.00 | 0.00 | 54 | 1011.7 |
| 20260505000551 | 65 | 184 | 1.7 | 7.0 | 0.00 | 0.00 | 0.00 | 53 | 1011.8 |
| 20260505000106 | 66 | 155 | 3.5 | 7.0 | 0.00 | 0.00 | 0.00 | 52 | 1011.6 |
| 20260504235551 | 67 | 140 | 1.7 | 6.1 | 0.00 | 0.00 | 0.00 | 50 | 1011.6 |
| 20260504235052 | 67 | 173 | 1.7 | 6.1 | 0.00 | 0.00 | 0.00 | 49 | 1011.6 |
| 20260504234610 | 68 | 181 | 2.6 | 7.8 | 0.00 | 0.00 | 0.00 | 47 | 1011.5 |
| 20260504234050 | 68 | 185 | 3.5 | 7.8 | 0.00 | 0.00 | 0.00 | 46 | 1011.5 |
| 20260504233551 | 69 | 173 | 3.5 | 7.0 | 0.00 | 0.00 | 0.00 | 42 | 1011.4 |
| 20260504233051 | 69 | 177 | 3.5 | 7.8 | 0.00 | 0.00 | 0.00 | 41 | 1011.4 |
| 20260504232552 | 69 | 216 | 2.6 | 7.8 | 0.00 | 0.00 | 0.00 | 40 | 1011.4 |
| 20260504232050 | 70 | 212 | 3.5 | 9.6 | 0.00 | 0.00 | 0.00 | 40 | 1011.5 |
| 20260504231603 | 70 | 206 | 4.3 | 9.6 | 0.00 | 0.00 | 0.00 | 39 | 1011.5 |
| 20260504231053 | 70 | 193 | 5.2 | 8.7 | 0.00 | 0.00 | 0.00 | 39 | 1011.5 |
| 20260504230555 | 70 | 224 | 1.7 | 7.8 | 0.00 | 0.00 | 0.00 | 39 | 1011.5 |
| 20260504230052 | 71 | 207 | 3.5 | 7.8 | 0.00 | 0.00 | 0.00 | 38 | 1011.4 |
| 20260504225550 | 71 | 213 | 2.6 | 13.9 | 0.00 | 0.00 | 0.00 | 37 | 1011.4 |
| 20260504225052 | 71 | 220 | 3.5 | 13.9 | 0.00 | 0.00 | 0.00 | 37 | 1011.2 |
| 20260504224555 | 72 | 229 | 6.1 | 13.0 | 0.00 | 0.00 | 0.00 | 36 | 1011.2 |
| 20260504224053 | 72 | 215 | 2.6 | 10.4 | 0.00 | 0.00 | 0.00 | 36 | 1011.1 |
| 20260504223554 | 72 | 242 | 5.2 | 12.2 | 0.00 | 0.00 | 0.00 | 35 | 1011.2 |
| 20260504223051 | 72 | 267 | 5.2 | 13.0 | 0.00 | 0.00 | 0.00 | 36 | 1011.2 |
| 20260504222551 | 72 | 232 | 7.0 | 14.8 | 0.00 | 0.00 | 0.00 | 36 | 1011.1 |
| 20260504222051 | 73 | 224 | 6.1 | 14.8 | 0.00 | 0.00 | 0.00 | 35 | 1011.1 |
| 20260504221559 | 73 | 246 | 7.8 | 14.8 | 0.00 | 0.00 | 0.00 | 35 | 1011.2 |
| 20260504221053 | 73 | 243 | 4.3 | 10.4 | 0.00 | 0.00 | 0.00 | 35 | 1011.2 |
| 20260504220554 | 73 | 276 | 5.2 | 11.3 | 0.00 | 0.00 | 0.00 | 35 | 1011.2 |
| 20260504220052 | 73 | 232 | 3.5 | 11.3 | 0.00 | 0.00 | 0.00 | 35 | 1011.1 |
| 20260504215552 | 73 | 233 | 7.8 | 13.9 | 0.00 | 0.00 | 0.00 | 34 | 1011.3 |
| 20260504215052 | 73 | 223 | 7.0 | 13.9 | 0.00 | 0.00 | 0.00 | 33 | 1011.3 |
| 20260504214554 | 74 | 215 | 5.2 | 12.2 | 0.00 | 0.00 | 0.00 | 33 | 1011.2 |
| 20260504214053 | 74 | 222 | 3.5 | 13.9 | 0.00 | 0.00 | 0.00 | 34 | 1011.1 |
| 20260504213552 | 74 | 250 | 3.5 | 13.9 | 0.00 | 0.00 | 0.00 | 34 | 1011.2 |
| 20260504213055 | 74 | 286 | 4.3 | 14.8 | 0.00 | 0.00 | 0.00 | 35 | 1011.2 |
| 20260504212552 | 74 | 325 | 7.0 | 14.8 | 0.00 | 0.00 | 0.00 | 33 | 1011.2 |
| 20260504212051 | 74 | 252 | 6.1 | 9.6 | 0.00 | 0.00 | 0.00 | 34 | 1011.1 |
| 20260504211558 | 74 | 277 | 4.3 | 12.2 | 0.00 | 0.00 | 0.00 | 34 | 1011.2 |
| 20260504211054 | 74 | 197 | 7.0 | 16.5 | 0.00 | 0.00 | 0.00 | 35 | 1011.1 |
| 20260504210551 | 74 | 240 | 7.8 | 16.5 | 0.00 | 0.00 | 0.00 | 36 | 1011.2 |
| 20260504210110 | 74 | 246 | 4.3 | 12.2 | 0.00 | 0.00 | 0.00 | 34 | 1011.2 |
| 20260504205552 | 74 | 219 | 6.1 | 16.5 | 0.00 | 0.00 | 0.00 | 35 | 1011.2 |
| 20260504205052 | 74 | 250 | 7.0 | 16.5 | 0.00 | 0.00 | 0.00 | 34 | 1011.3 |
| 20260504204602 | 74 | 200 | 9.6 | 15.6 | 0.00 | 0.00 | 0.00 | 34 | 1011.1 |
| 20260504204053 | 74 | 209 | 8.7 | 14.8 | 0.00 | 0.00 | 0.00 | 34 | 1011.1 |
| 20260504203553 | 74 | 208 | 6.1 | 14.8 | 0.00 | 0.00 | 0.00 | 33 | 1011.1 |
| 20260504203054 | 74 | 180 | 6.1 | 14.8 | 0.00 | 0.00 | 0.00 | 34 | 1011.0 |
| 20260504202553 | 75 | 211 | 6.1 | 12.2 | 0.00 | 0.00 | 0.00 | 33 | 1011.1 |
| 20260504202057 | 74 | 206 | 3.5 | 13.0 | 0.00 | 0.00 | 0.00 | 33 | 1011.1 |
| 20260504201556 | 74 | 239 | 6.1 | 13.0 | 0.00 | 0.00 | 0.00 | 31 | 1011.3 |
| 20260504201053 | 75 | 247 | 6.1 | 11.3 | 0.00 | 0.00 | 0.00 | 33 | 1011.3 |
| 20260504200552 | 75 | 244 | 4.3 | 10.4 | 0.00 | 0.00 | 0.00 | 33 | 1011.3 |
| 20260504200100 | 75 | 242 | 3.5 | 15.6 | 0.00 | 0.00 | 0.00 | 34 | 1011.3 |
| 20260504195550 | 74 | 0 | 5.2 | 15.6 | 0.00 | 0.00 | 0.00 | 36 | 1011.4 |
| 20260504195051 | 74 | 216 | 7.0 | 15.6 | 0.00 | 0.00 | 0.00 | 34 | 1011.5 |
| 20260504194608 | 74 | 183 | 7.0 | 13.0 | 0.00 | 0.00 | 0.00 | 33 | 1011.4 |
| 20260504194051 | 74 | 205 | 2.6 | 13.0 | 0.00 | 0.00 | 0.00 | 36 | 1011.4 |
| 20260504193551 | 74 | 233 | 7.0 | 13.0 | 0.00 | 0.00 | 0.00 | 35 | 1011.5 |
| 20260504193056 | 73 | 321 | 6.1 | 13.0 | 0.00 | 0.00 | 0.00 | 34 | 1011.6 |
| 20260504192550 | 73 | 222 | 7.8 | 13.0 | 0.00 | 0.00 | 0.00 | 35 | 1011.8 |
| 20260504192052 | 73 | 226 | 5.2 | 14.8 | 0.00 | 0.00 | 0.00 | 35 | 1011.9 |
| 20260504191558 | 73 | 297 | 6.1 | 14.8 | 0.00 | 0.00 | 0.00 | 35 | 1012.0 |
| 20260504191052 | 73 | 236 | 5.2 | 12.2 | 0.00 | 0.00 | 0.00 | 35 | 1012.0 |
| 20260504190552 | 73 | 317 | 6.1 | 13.0 | 0.00 | 0.00 | 0.00 | 35 | 1012.1 |
| 20260504190125 | 73 | 257 | 7.0 | 13.0 | 0.00 | 0.00 | 0.00 | 34 | 1012.3 |
| 20260504185552 | 73 | 258 | 6.1 | 13.0 | 0.00 | 0.00 | 0.00 | 35 | 1012.3 |
| 20260504185052 | 73 | 225 | 7.0 | 13.0 | 0.00 | 0.00 | 0.00 | 35 | 1012.4 |
| 20260504184557 | 73 | 254 | 6.1 | 12.2 | 0.00 | 0.00 | 0.00 | 34 | 1012.6 |
| 20260504184054 | 73 | 200 | 3.5 | 12.2 | 0.00 | 0.00 | 0.00 | 38 | 1012.5 |
| 20260504183550 | 73 | 243 | 6.1 | 12.2 | 0.00 | 0.00 | 0.00 | 34 | 1012.8 |
| 20260504183054 | 73 | 271 | 3.5 | 9.6 | 0.00 | 0.00 | 0.00 | 35 | 1012.7 |
| 20260504182550 | 72 | 254 | 4.3 | 10.4 | 0.00 | 0.00 | 0.00 | 35 | 1012.8 |
| 20260504182054 | 72 | 255 | 4.3 | 10.4 | 0.00 | 0.00 | 0.00 | 34 | 1012.9 |
| 20260504181600 | 73 | 269 | 4.3 | 12.2 | 0.00 | 0.00 | 0.00 | 35 | 1013.0 |
| 20260504181054 | 73 | 204 | 5.2 | 12.2 | 0.00 | 0.00 | 0.00 | 36 | 1012.9 |
| 20260504180555 | 73 | 225 | 2.6 | 14.8 | 0.00 | 0.00 | 0.00 | 36 | 1013.1 |
| 20260504180144 | 71 | 250 | 5.2 | 14.8 | 0.00 | 0.00 | 0.00 | 35 | 1013.1 |
| 20260504175552 | 71 | 219 | 7.8 | 14.8 | 0.00 | 0.00 | 0.00 | 36 | 1013.1 |
| 20260504175056 | 72 | 237 | 5.2 | 12.2 | 0.00 | 0.00 | 0.00 | 35 | 1013.3 |
| 20260504174553 | 72 | 5 | 4.3 | 12.2 | 0.00 | 0.00 | 0.00 | 35 | 1013.3 |
| 20260504174057 | 71 | 290 | 5.2 | 12.2 | 0.00 | 0.00 | 0.00 | 37 | 1013.3 |
| 20260504173556 | 71 | 178 | 4.3 | 12.2 | 0.00 | 0.00 | 0.00 | 36 | 1013.6 |
| 20260504173115 | 70 | 296 | 3.5 | 15.6 | 0.00 | 0.00 | 0.00 | 37 | 1013.4 |
| 20260504172552 | 70 | 240 | 7.0 | 15.6 | 0.00 | 0.00 | 0.00 | 37 | 1013.7 |
| 20260504172055 | 71 | 259 | 5.2 | 11.3 | 0.00 | 0.00 | 0.00 | 37 | 1013.6 |
| 20260504171557 | 70 | 300 | 5.2 | 12.2 | 0.00 | 0.00 | 0.00 | 38 | 1013.6 |
| 20260504171056 | 71 | 295 | 6.1 | 15.6 | 0.00 | 0.00 | 0.00 | 36 | 1013.8 |
| 20260504170555 | 71 | 296 | 7.8 | 15.6 | 0.00 | 0.00 | 0.00 | 36 | 1013.9 |
| 20260504151054 | 67 | 196 | 5.2 | 12.2 | 0.00 | 0.00 | 0.00 | 49 | 1015.2 |
| 20260504150556 | 66 | 292 | 7.0 | 12.2 | 0.00 | 0.00 | 0.00 | 48 | 1015.2 |
| 20260504141055 | 63 | 275 | 5.2 | 15.6 | 0.00 | 0.00 | 0.00 | 56 | 1015.2 |
| 20260504140553 | 63 | 217 | 8.7 | 15.6 | 0.00 | 0.00 | 0.00 | 54 | 1015.3 |
| 20260504140112 | 63 | 260 | 7.8 | 14.8 | 0.00 | 0.00 | 0.00 | 54 | 1015.2 |
| 20260504130552 | 58 | 219 | 7.0 | 13.9 | 0.00 | 0.00 | 0.00 | 65 | 1015.5 |
| 20260504120136 | 48 | 187 | 3.5 | 6.1 | 0.00 | 0.00 | 0.00 | 90 | 1016.3 |
| 20260504110552 | 37 | 0 | 0.0 | 0.0 | 0.00 | 0.00 | 0.00 | 92 | 1016.2 |
| 20260504100551 | 33 | 0 | 0.0 | 0.0 | 0.00 | 0.00 | 0.00 | 88 | 1016.1 |
| 20260504081555 | 35 | 0 | 0.0 | 1.7 | 0.00 | 0.00 | 0.00 | 86 | 1016.1 |
| 20260504081050 | 35 | 0 | 0.0 | 1.7 | 0.00 | 0.00 | 0.00 | 86 | 1016.1 |
| 20260504080553 | 35 | 0 | 0.0 | 1.7 | 0.00 | 0.00 | 0.00 | 86 | 1016.0 |